Tracking 29892 objects as of 21-Nov-2024
HD Live streaming from Space Station
objects crossing your sky now

STARLINK-31009

Track STARLINK-31009 now!
10-day predictions
STARLINK-31009 is classified as:


NORAD ID: 58530
Int'l Code: 2023-191Y
Perigee: 565.5 km
Apogee: 566.9 km
Inclination: 43.0 °
Period: 95.8 minutes
Semi major axis: 6937 km
RCS: Unknown
Launch date: December 7, 2023
Source: United States (US)
Launch site: AIR FORCE EASTERN TEST RANGE (AFETR)
Your satellite tracking list
Your tracking list is empty




NASA's NSSDC Master Catalog

Two Line Element Set (TLE):
1 58530U 23191Y   24325.89658476  .00000858  00000-0  78572-4 0  9990
2 58530  43.0014 160.1742 0001003 274.8576  85.2152 15.02539819 54194
Source of the keplerian elements: AFSPC